Flag for Romania Weather past 2 weeks in Bucharest, Romania

Now
68 °F

Clear.


Feels Like: 68 °F
Forecast: 63 / 87 °F
Wind: 1 mph from North

Location: Bucharest / Imh

Current Time: Aug 2, 2015 at 1:29:58 AM

Latest Report: Aug 2, 2015 at 12:30 AM


Visibility: 10 mi

Pressure: 30.15 "Hg

Humidity: 73%

Dew point: 59 °F

Location of BucharestLocation

Historic Weather in Bucharest — Graph

°F

Bucharest temperature yesterday

Maximum temperature yesterday: 79 °F (at 3:30 PM)
Minimum temperature yesterday: 64 °F (at 3:30 AM)
Average temperature yesterday: 72 °F

Past Weeks' High & Low Weather Summary

 TemperatureHumidityPressure
High100 °F (Jul 30, 4:30 PM)100% (Aug 1, 3:30 AM)30.15 "Hg (Aug 1, 3:30 AM)
Low64 °F (Jul 24, 6:00 AM)20% (Jul 28, 6:00 PM)29.68 "Hg (Jul 27, 6:00 PM)
Average81 °F52%29.89 "Hg
* Reported Midnight between Jul 17 and Jul 18 — Midnight between Aug 1 and Aug 2, Bucharest, Weather by CustomWeather, © 2015

Note: Actual official high and low records may vary slightly from our data, if they occured in-between our weather recording intervals... More about our weather records

Advertising

Bucharest weather history for previous 24 hours

 ConditionsComfort  
Time TempWeatherWind HumidityBarometerVisibility
12:00 AM
Sun, Aug 2
70 °FClear.No wind73%30.15 "Hg10 mi
11:30 PM
Sat, Aug 1
70 °FClear.1 mph73%30.15 "Hg10 mi
11:00 PM70 °FClear.2 mph73%30.12 "Hg10 mi
10:30 PM70 °FClear.2 mph73%30.12 "Hg10 mi
10:00 PM72 °FClear.2 mph69%30.12 "Hg10 mi
9:30 PM72 °FMild.2 mph69%30.12 "HgN/A
9:00 PM75 °FSunny.3 mph61%30.09 "Hg10 mi
8:30 PM77 °FWarm.3 mph54%30.09 "HgN/A
8:00 PM79 °FPassing clouds.5 mph51%30.09 "HgN/A
7:30 PM79 °FWarm.6 mph51%30.09 "HgN/A
7:00 PM79 °FPassing clouds.5 mph51%30.09 "HgN/A
6:30 PM79 °FPassing clouds.5 mph51%30.09 "HgN/A
6:00 PM79 °FSunny.8 mph51%30.09 "Hg10 mi
5:30 PM79 °FScattered clouds.9 mph51%30.09 "HgN/A
5:00 PM79 °FScattered clouds.10 mph51%30.12 "HgN/A
4:30 PM79 °FScattered clouds.13 mph51%30.09 "HgN/A
4:00 PM79 °FScattered clouds.12 mph51%30.12 "HgN/A
3:30 PM79 °FScattered clouds.13 mph51%30.12 "HgN/A
3:00 PM77 °FScattered clouds.12 mph54%30.12 "HgN/A
2:30 PM77 °FPassing clouds.13 mph54%30.12 "HgN/A
2:00 PM77 °FPassing clouds.15 mph54%30.12 "HgN/A
1:30 PM77 °FPassing clouds.14 mph54%30.12 "HgN/A
1:00 PM77 °FPassing clouds.14 mph51%30.12 "HgN/A
12:30 PM75 °FPassing clouds.15 mph54%30.12 "HgN/A
12:00 PM75 °FPassing clouds.16 mph54%30.09 "HgN/A
11:30 AM75 °FPassing clouds.15 mph57%30.09 "HgN/A
11:00 AM73 °FPassing clouds.15 mph61%30.09 "HgN/A
10:30 AM73 °FPassing clouds.12 mph65%30.09 "HgN/A
10:00 AM72 °FPassing clouds.15 mph65%30.09 "HgN/A
9:30 AM70 °FPassing clouds.9 mph73%30.09 "HgN/A
9:00 AM68 °FPassing clouds.9 mph78%30.07 "HgN/A
8:30 AM66 °FPassing clouds.9 mph83%30.07 "HgN/A
8:00 AM66 °FPartly sunny.9 mph83%30.07 "HgN/A
7:30 AM64 °FPartly sunny.12 mph88%30.04 "HgN/A
7:00 AM64 °FPassing clouds.10 mph88%30.04 "HgN/A
6:30 AM64 °FPassing clouds.9 mph88%30.01 "HgN/A
6:00 AM64 °FPassing clouds.9 mph94%30.01 "HgN/A
5:30 AM64 °FPassing clouds.10 mph94%30.01 "HgN/A
5:00 AM64 °FPassing clouds.12 mph94%30.01 "HgN/A
4:30 AM64 °FSprinkles. Passing clouds.10 mph94%30.01 "HgN/A
4:00 AM64 °FSprinkles. Passing clouds.13 mph94%29.98 "Hg5 mi
3:30 AM64 °FThunderstorms. Passing clouds.10 mph100%29.98 "Hg4 mi
3:00 AM66 °FThunderstorms. Passing clouds.12 mph94%29.98 "Hg3 mi
2:30 AM66 °FThunderstorms. Passing clouds.9 mph94%29.98 "Hg3 mi
2:00 AM66 °FThunderstorms. Passing clouds.7 mph94%29.98 "HgN/A
1:30 AM68 °FThunderstorms. Mostly cloudy.10 mph94%30.01 "Hg4 mi
1:00 AM70 °FThunderstorms. Passing clouds.8 mph83%29.95 "HgN/A
Weather by CustomWeather, © 2015

See weather overviewHow to use our weather pages